Hourly Weather Roundup
Issued by NWS Central Illinois

Home | Current Version | Previous Version | Text Only | Print | Product List | Glossary On
Versions: 1 2 3 4 5 6 7 8 9 10 11 12 13 14 15 16 17 18 19 20 21 22 23 24 25 26 27 28 29 30 31 32 33 34 35 36 37 38 39 40 41 42 43 44 45 46 47 48 49 50
000
NZUS43 KILX 031610
HWRILX

AREA WEATHER ROUNDUP
NATIONAL WEATHER SERVICE, LINCOLN IL
1100 AM CDT MON AUG 03 2015


CITY           SKY/WX    TMP DP  RH WIND       PRES   REMARKS
BLOOMINGTON    PTSUNNY   81  70  69 NW10      29.90R HX  84
CHAMPAIGN      MOSUNNY   83  72  69 W9        29.87R HX  88
DANVILLE       SUNNY     82  69  66 W3        29.83S HX  85
DECATUR        SUNNY     82  69  64 W10       29.89R HX  85
EFFINGHAM      SUNNY     85  61  45 W7        29.91R HX  85
FLORA          SUNNY     86  66  50 W8        29.89S HX  88
GALESBURG      SUNNY     76  58  53 N6        29.93R
JACKSONVILLE   PTSUNNY   81  69  66 W5        29.91S HX  84
LACON          SUNNY     77  62  59 NW8       29.89R
LAWRENCEVILLE  SUNNY     87  67  51 W10       29.87R HX  90
LITCHFIELD     SUNNY     81  67  60 W8        29.91S HX  84
$$


CITY           SKY/WX    TMP DP  RH WIND       PRES   REMARKS
LINCOLN        SUNNY     82  67  60 W8        29.88S HX  85
MACOMB         SUNNY     76  62  60 N6        29.95R
MATTOON        SUNNY     84  67  56 SW10      29.87R HX  86
MT CARMEL AP   SUNNY     86  68  54 W9        29.87S HX  89
OLNEY-NOBLE AP SUNNY     84  68  58 W5        29.89S HX  87
PARIS          MOSUNNY   83  73  71 W8        29.87R HX  89
PEORIA         SUNNY     81  64  56 VRB6      29.90R HX  82
PONTIAC        SUNNY     80  67  64 NW6       29.88R HX  82
RANTOUL        SUNNY     85  68  56 W5        29.86R HX  88
ROBINSON       SUNNY     84  69  61 W8        29.88R HX  88
SPRINGFIELD    MOSUNNY   80  69  69 W9        29.90R HX  83
TAYLORVILLE    PTSUNNY   79  68  69 W9        29.91R HX  81
$$

...REGIONAL REPORTS...


CITY           SKY/WX    TMP DP  RH WIND       PRES   REMARKS
CHICAGO O`HARE MOSUNNY   77  56  48 W10       29.86R
KANKAKEE       SUNNY     81  64  55 NW7       29.87R HX  82
MOLINE         SUNNY     78  53  41 N8G17     29.92R
MOUNT STERLING NOT AVBL
MOUNT VERNON   SUNNY     88  66  48 W8        29.91S HX  90
PITTSFIELD     PTSUNNY   80  66  61 SW3       29.93S HX  82
QUINCY         SUNNY     78  65  63 NW7       29.93S HX  80
ROCKFORD       MOSUNNY   78  46  32 NW14      29.91R
$$


CITY           SKY/WX    TMP DP  RH WIND       PRES   REMARKS
BURLINGTON     SUNNY     78  61  55 N7        29.93S HX  80
CEDAR RAPIDS   SUNNY     74  56  53 NW5       29.95R
DES MOINES     MOSUNNY   78  55  44 VRB6      29.98R
KIRKSVILLE     SUNNY     79  59  50 N6        29.97R HX  80
OTTUMWA        SUNNY     76  60  57 N9        29.95R
ST LOUIS       MOSUNNY   89  61  38 NW10      29.92R HX  89
$$


CITY           SKY/WX    TMP DP  RH WIND       PRES   REMARKS
TERRE HAUTE    SUNNY     85  69  58 W10       29.85R HX  89
EVANSVILLE     SUNNY     88  69  53 W8        29.88F HX  92
INDIANAPOLIS   PTSUNNY   83  71  67 S7        29.84S HX  87
LAFAYETTE      SUNNY     81  65  58 NW10      29.83S HX  83
MADISON        MOSUNNY   75  47  36 NW13G22   29.87S
MILWAUKEE      MOSUNNY   76  45  33 NW16      29.84R
$$





USA.gov is the U.S. government's official web portal to all federal, state and local government web resources and services.